This demonstration page uses our WeatherBlox Daily Observations layout. Learn more.

Left ArrowRight Arrow

Hourly Observations for December 8, 2020

Temp ( °F °C ) Dew Point ( °F °C ) Humidity (%) Winds ( mph kmh ) Pressure ( in mb ) Visibility ( mi km ) Precip ( " mm )
1:56 am 01:56 Clear 29 -1.7 18 -7.8 63 63 W 6 9 30.18 1022 10 16 0.00 0.00
2:56 am 02:56 Clear 34 1.1 17 -8.3 50 50 NW 10 17 30.17 1022 10 16 0.00 0.00
3:56 am 03:56 Clear 34 1.1 17 -8.3 50 50 W 8 13 30.16 1022 10 16 0.00 0.00
4:56 am 04:56 Clear 34 1.1 17 -8.3 50 50 WNW 9 15 30.16 1021 10 16 0.00 0.00
5:56 am 05:56 Clear 30 -1.1 18 -7.8 61 61 WNW 5 7 30.18 1022 10 16 0.00 0.00
6:56 am 06:56 Clear 26 -3.3 17 -8.3 69 69 W 5 7 30.20 1023 10 16 0.00 0.00
7:56 am 07:56 Sunny 28 -2.2 18 -7.8 66 66 WNW 3 6 30.21 1023 10 16 0.00 0.00
8:56 am 08:56 Sunny 34 1.1 19 -7.2 54 54 W 3 6 30.20 1023 10 16 0.00 0.00
9:56 am 09:56 Sunny 47 8.3 20 -6.7 34 34 WNW 9 15 30.18 1022 10 16 0.00 0.00
10:56 am 10:56 Sunny 52 11.1 19 -7.2 27 27 WNW 12 19 30.17 1022 10 16 0.00 0.00
11:56 am 11:56 Sunny 58 14.4 19 -7.2 22 22 WSW 7 11 30.13 1020 10 16 0.00 0.00
12:56 pm 12:56 Sunny 61 16.1 20 -6.7 20 20 WSW 8 13 30.09 1019 10 16 0.00 0.00
1:56 pm 13:56 Sunny 63 17.2 18 -7.8 17 17 W 8 13 30.06 1018 10 16 0.00 0.00
2:56 pm 14:56 Sunny 64 17.8 19 -7.2 18 18 W 10 17 30.03 1017 10 16 0.00 0.00
3:56 pm 15:56 Sunny 64 17.8 18 -7.8 17 17 WSW 8 13 30.03 1017 10 16 0.00 0.00
4:56 pm 16:56 Sunny 61 16.1 18 -7.8 19 19 WSW 6 9 30.04 1017 10 16 0.00 0.00
5:56 pm 17:56 Clear 55 12.8 18 -7.8 23 23 W 3 6 30.06 1018 10 16 0.00 0.00
6:56 pm 18:56 Clear 51 10.6 18 -7.8 27 27 W 7 11 30.08 1019 10 16 0.00 0.00
7:56 pm 19:56 Clear 50 10 17 -8.3 27 27 WSW 7 11 30.07 1018 10 16 0.00 0.00
8:56 pm 20:56 Clear 50 10 17 -8.3 27 27 WSW 5 7 30.06 1018 10 16 0.00 0.00
9:56 pm 21:56 Clear 51 10.6 15 -9.4 24 24 W 8 13 30.03 1017 10 16 0.00 0.00
10:56 pm 22:56 Clear 45 7.2 16 -8.9 31 31 WNW 8 13 30.03 1017 10 16 0.00 0.00
11:56 pm 23:56 Clear 48 8.9 15 -9.4 27 27 W 8 13 30.03 1017 10 16 0.00 0.00

Powered by AerisWeather